Tracking 29489 objects as of 10-Sep-2024
HD Live streaming from Space Station
objects crossing your sky now

FENGYUN 1C DEB

Track FENGYUN 1C DEB now!
10-day predictions


NORAD ID: 31714
Int'l Code: 1999-025CDM
Perigee: 709.2 km
Apogee: 763.7 km
Inclination: 99.0 °
Period: 99.4 minutes
Semi major axis: 7107 km
RCS: 0.0102 m2 (small)
Launch date: May 10, 1999
Source: People's Republic of China (PRC)
Launch site: Taiyaun Space Center, China (TSC)

Note: This is SATELLITE DEBRIS
Your satellite tracking list
Your tracking list is empty




NASA's NSSDC Master Catalog

Two Line Element Set (TLE):
1 31714U 99025CDM 24253.52091885  .00042431  00000-0  11059-1 0  9996
2 31714  99.0489 100.6459 0038310 269.5024 150.2373 14.48873733893150
Source of the keplerian elements: AFSPC